This is the latest recevied weather packets stored in our database for station/object BRIVER. If no packets are shown the sender has not sent any weather packets the latest 1 day(s).
| Time | Temp. | Humidity | Pressure | Rain* | Wind** | Luminosity | Snow |
|---|---|---|---|---|---|---|---|
| 1778019629 | 13.33° C | 81% | 1013.2 hPa | 0 mm | 6.26 m/s, 204° | - | - |
| 1778019570 | 13.33° C | 80% | 1013.1 hPa | 0 mm | 6.26 m/s, 208° | - | - |
| 1778019329 | 13.33° C | 82% | 1013.2 hPa | 0 mm | 6.26 m/s, 219° | - | - |
| 1778019029 | 13.33° C | 81% | 1013.1 hPa | 0 mm | 6.26 m/s, 220° | - | - |
| 1778018729 | 13.33° C | 81% | 1013.2 hPa | 0 mm | 5.36 m/s, 207° | - | - |
| 1778018490 | 13.33° C | 82% | 1013.2 hPa | 0 mm | 4.92 m/s, 204° | - | - |
| 1778018429 | 13.33° C | 81% | 1013.2 hPa | 0 mm | 5.36 m/s, 214° | - | - |
| 1778018129 | 13.33° C | 82% | 1013.3 hPa | 0 mm | 5.36 m/s, 209° | - | - |
| 1778017951 | 13.33° C | 80% | 1013.4 hPa | 0 mm | 5.36 m/s, 225° | - | - |
| 1778017829 | 13.33° C | 82% | 1013.2 hPa | 0 mm | 4.92 m/s, 202° | - | - |
| 1778017529 | 13.33° C | 82% | 1013.2 hPa | 0 mm | 4.92 m/s, 209° | - | - |
| 1778017410 | 13.33° C | 83% | 1013.2 hPa | 0 mm | 4.92 m/s, 215° | - | - |
| 1778017229 | 13.33° C | 83% | 1013.1 hPa | 0 mm | 5.36 m/s, 219° | - | - |
| 1778016929 | 12.78° C | 84% | 1013.3 hPa | 0 mm | 4.92 m/s, 209° | - | - |
| 1778016870 | 12.78° C | 84% | 1013.2 hPa | 0 mm | 4.92 m/s, 209° | - | - |
| 1778016629 | 12.78° C | 84% | 1013.3 hPa | 0 mm | 4.47 m/s, 215° | - | - |
| 1778016329 | 13.33° C | 83% | 1013.3 hPa | 0 mm | 4.47 m/s, 215° | - | - |
| 1778016029 | 12.78° C | 84% | 1013.3 hPa | 0 mm | 4.47 m/s, 195° | - | - |
| 1778015790 | 12.78° C | 85% | 1013.3 hPa | 0 mm | 4.92 m/s, 218° | - | - |
| 1778015729 | 12.78° C | 84% | 1013.3 hPa | 0 mm | 4.92 m/s, 228° | - | - |
| 1778015429 | 12.78° C | 84% | 1013.3 hPa | 0 mm | 4.92 m/s, 188° | - | - |
| 1778015250 | 12.78° C | 87% | 1013.4 hPa | 0 mm | 4.92 m/s, 209° | - | - |
| 1778015129 | 12.22° C | 86% | 1013.3 hPa | 0 mm | 4.92 m/s, 210° | - | - |
| 1778014829 | 12.22° C | 86% | 1013.3 hPa | 0 mm | 4.92 m/s, 215° | - | - |
| 1778014710 | 12.22° C | 85% | 1013.3 hPa | 0 mm | 5.36 m/s, 209° | - | - |
* Rain latest hour (hover to see other rain measurements)
** Current wind speed in m/s (hover to see current wind gust speed)